Regional Weather Roundup
Issued by NWS Little Rock, AR

Home | Current Version | Previous Version | Graphics & Text | Print | Product List | Glossary On
Versions: 1 2 3 4 5 6 7 8 9 10 11 12 13 14 15 16 17 18 19 20 21 22 23 24 25 26 27 28 29 30 31 32 33 34 35 36 37 38 39 40 41 42 43 44 45 46 47 48 49 50
000
ASUS44 KLZK 230405
RWRLZK

WEATHER ROUNDUP FOR ARKANSAS
NATIONAL WEATHER SERVICE LITTLE ROCK AR
1100 PM CDT MON MAY 22 2017

NOTE: "FAIR" INDICATES FEW OR NO CLOUDS BELOW 12,000 FEET WITH NO
SIGNIFICANT WEATHER AND/OR OBSTRUCTIONS TO VISIBILITY.

ARZ001-003-010-029-230500-
NORTHWEST ARKANSAS

CITY           SKY/WX    TMP DP  RH WIND       PRES   REMARKS
FAYETTEVILLE   CLOUDY    61  58  90 CALM      29.94S
FORT SMITH     LGT RAIN  68  55  63 SE5       29.91F
HARRISON       PTCLDY    61  52  72 SE3       29.94F
BENTONVILLE    CLOUDY    66  55  68 CALM      29.94S
ROGERS         CLOUDY    64  57  78 CALM      29.94F
SILOAM SPGS    CLOUDY    63  54  72 SW5       29.94S
HIGHFILL       CLOUDY    65  55  70 SW3       29.94S
$$

ARZ004-005-016-230500-
NORTH CENTRAL ARKANSAS

CITY           SKY/WX    TMP DP  RH WIND       PRES   REMARKS
BATESVILLE     CLOUDY    61  55  82 CALM      29.95S
FLIPPIN        PTCLDY    63  48  59 CALM      29.92F
MTN HOME       PTCLDY    60  52  74 S5        29.94R
$$

ARZ040-041-230500-
WEST CENTRAL ARKANSAS

CITY           SKY/WX    TMP DP  RH WIND       PRES   REMARKS
MENA           CLOUDY    64  59  82 CALM      29.96F
MOUNT IDA      PTCLDY    60  56  86 CALM      29.94S
$$

ARZ009-017-025-026-028-230500-
NORTHEAST ARKANSAS

CITY           SKY/WX    TMP DP  RH WIND       PRES   REMARKS
JONESBORO      CLOUDY    61  56  83 CALM      29.92F
NEWPORT        CLOUDY    64  59  83 SW5       29.93F
WALNUT RIDGE   PTCLDY    64  54  68 W3        29.93F
BLYTHEVILLE    CLOUDY    66  58  75 CALM      29.93F
$$

ARZ022-023-033-042-044-230500-
CENTRAL ARKANSAS

CITY           SKY/WX    TMP DP  RH WIND       PRES   REMARKS
LITTLE ROCK    CLOUDY    62  59  90 CALM      29.94F
N LITTLE ROCK    N/A     60  56  87 CALM      29.94F
JACKSONVILLE   CLOUDY    60  58  91 CALM      29.93F
CONWAY           N/A     64  59  82 S3        29.93S
SEARCY         CLOUDY    60  60 100 W3        29.96F
HOT SPRINGS    CLOUDY    64  57  78 CALM      29.95S
RUSSELLVILLE   CLOUDY    63  53  70 CALM      29.94S
CLINTON        CLOUDY    61  57  88 CALM      29.96R
$$

ARZ036-230500-
EAST ARKANSAS

CITY           SKY/WX    TMP DP  RH WIND       PRES   REMARKS
WEST MEMPHIS   CLOUDY    66  60  81 CALM      29.92F
$$

ARZ050-053-066-070-073-230500-
SOUTHWEST ARKANSAS

CITY           SKY/WX    TMP DP  RH WIND       PRES   REMARKS
ARKADELPHIA      N/A     64  60  87 CALM      29.95S
CAMDEN         CLOUDY    63  57  82 CALM      29.94F
TEXARKANA      CLOUDY    61  59  93 NE3       29.94F
EL DORADO      CLOUDY    62  60  93 N3        29.93F
DE QUEEN       PTCLDY    61  60  97 CALM      29.94R
$$

ARZ056-057-069-230500-
SOUTHEAST ARKANSAS

CITY           SKY/WX    TMP DP  RH WIND       PRES   REMARKS
PINE BLUFF     CLOUDY    64  59  83 W3        29.94F
STUTTGART      CLOUDY    64  50  59 N3        29.95S
MONTICELLO     CLOUDY    63  60  90 CALM      29.93F

$$





USA.gov is the U.S. government's official web portal to all federal, state and local government web resources and services.